Stations météo

réclame
Mon MeteoGroup
Biarritz, France (7602): Température de l'air & dewpoint: 17.09.2017 22:00:00 - 23.09.2017 22:00:00 (CEST)Biarritz, France (7602): Température de l'air 5cm: 17.09.2017 22:00:00 - 23.09.2017 22:00:00 (CEST)Biarritz, France (7602): Température de l'air -20cm & Température de l'air -100cm: 17.09.2017 22:00:00 - 23.09.2017 22:00:00 (CEST)Biarritz, France (7602): Vitesse du vent & gusts: 17.09.2017 22:00:00 - 23.09.2017 22:00:00 (CEST)Biarritz, France (7602): Direction du vent: 17.09.2017 22:00:00 - 23.09.2017 22:00:00 (CEST)Biarritz, France (7602): reduced air pressure: 17.09.2017 22:00:00 - 23.09.2017 22:00:00 (CEST)Biarritz, France (7602): visibility: 17.09.2017 22:00:00 - 23.09.2017 22:00:00 (CEST)Biarritz, France (7602): Ensoleillement: 17.09.2017 22:00:00 - 23.09.2017 22:00:00 (CEST)Biarritz, France (7602): Quantités de précipitations: 17.09.2017 22:00:00 - 23.09.2017 22:00:00 (CEST)
Date & Time tt [°C] td [°C] tt 5cm [°C] tt -20cm [°C] tt -100cm [°C] ff [km/h] ff [knt] fx [km/h] fx [knt] dd ppp [hPa] vv [km] sd [min] rr [mm]
23.09.2017 22:00:00 - - - - - - - - - - - - - -
23.09.2017 21:00:00 22,5 16,8 16,5 20,0 18,7 5 3 8 4 ESE 1017,7 46 0 0,0
23.09.2017 20:00:00 24,0 16,8 20,9 20,0 18,7 7 4 9 5 ENE 1017,2 54 29 0,0
23.09.2017 19:00:00 27,1 16,4 28,7 19,9 18,6 5 3 10 6 ESE 1016,7 54 60 0,0
23.09.2017 18:00:00 28,2 14,8 31,5 19,6 18,6 5 3 13 7 SE 1016,6 20 60 0,0
23.09.2017 17:00:00 28,5 14,7 31,4 19,2 18,7 7 4 15 8 S 1016,9 28 60 0,0
23.09.2017 16:00:00 28,1 14,3 32,3 18,8 18,7 8 5 19 10 SSW 1017,2 47 60 0,0
23.09.2017 15:00:00 27,7 13,2 32,0 18,3 18,7 10 5 21 12 S 1017,5 45 60 0,0
23.09.2017 14:00:00 26,7 13,8 30,5 17,8 18,7 11 6 23 12 SSE 1017,8 43 60 0,0
23.09.2017 13:00:00 25,6 14,4 28,2 17,4 18,7 7 4 13 7 SE 1018,1 44 60 0,0
23.09.2017 12:00:00 23,1 15,7 23,6 17,1 18,7 7 4 12 6 E 1018,6 52 56 0,0
23.09.2017 11:00:00 19,3 14,8 19,5 17,0 18,7 8 4 11 6 E 1018,9 39 60 0,0
23.09.2017 10:00:00 16,2 14,0 15,8 17,0 18,7 7 4 12 6 E 1018,9 45 60 0,0
23.09.2017 09:00:00 13,9 13,3 11,4 17,1 18,7 9 5 12 6 E 1018,9 20 45 0,0
23.09.2017 08:00:00 11,9 11,4 11,1 17,3 18,7 9 5 11 6 E 1018,9 19 0 0,0
23.09.2017 07:00:00 12,4 11,9 11,6 17,4 18,6 9 5 14 7 E 1019,2 14 0 0,0
23.09.2017 06:00:00 12,0 11,7 11,1 17,6 18,6 10 6 14 7 E 1019,6 12 0 0,0
23.09.2017 05:00:00 12,0 11,7 11,4 17,7 18,7 12 6 16 9 E 1020,2 8 0 0,2
23.09.2017 04:00:00 12,2 11,7 11,4 17,9 18,6 7 4 13 7 ESE 1021,0 3,3 0 0,0
23.09.2017 03:00:00 12,9 12,3 12,2 18,1 18,7 9 5 13 7 E 1021,6 6 0 0,0
23.09.2017 02:00:00 13,5 12,7 11,2 18,2 18,6 9 5 13 7 E 1021,9 7 0 0,0
23.09.2017 01:00:00 13,9 13,1 11,9 18,4 18,6 7 4 8 5 E 1022,1 8 0 0,0
23.09.2017 00:00:00 14,8 13,7 12,7 18,5 18,6 6 4 9 5 ENE 1022,2 14 0 0,0
22.09.2017 23:00:00 16,4 14,8 15,4 18,7 18,6 7 4 12 6 NE 1022,3 24 0 0,0
22.09.2017 22:00:00 17,0 14,6 15,9 18,8 18,6 6 3 16 8 NNE 1022,2 32 0 0,0
22.09.2017 21:00:00 17,5 14,9 15,2 18,8 18,6 6 3 13 7 ENE 1022,0 33 0 0,0
22.09.2017 20:00:00 18,6 13,5 17,5 18,8 18,6 5 3 9 5 ENE 1021,8 60 42 0,0
22.09.2017 19:00:00 20,0 13,9 21,2 18,8 18,6 7 4 14 8 ENE 1021,8 29 47 0,0
22.09.2017 18:00:00 20,4 15,0 21,1 18,7 18,6 9 5 14 8 E 1021,7 55 9 0,0
22.09.2017 17:00:00 19,2 15,3 20,1 18,5 18,6 6 3 11 6 N 1022,1 43 0 0,0
22.09.2017 16:00:00 19,2 15,1 20,5 18,3 18,6 6 3 11 6 ENE 1022,6 42 0 0,0
22.09.2017 15:00:00 19,6 15,0 22,3 18,0 18,6 5 3 13 7 N 1022,6 40 3 0,0
22.09.2017 14:00:00 19,0 14,7 21,8 17,8 18,6 5 3 16 9 NW 1022,9 42 0 0,0
22.09.2017 13:00:00 18,4 15,3 19,4 17,7 18,6 2 1 8 5 NNE 1022,9 52 0 0,0
22.09.2017 12:00:00 17,6 14,7 18,7 17,6 18,6 4 2 8 4 SE 1022,6 41 0 0,0
22.09.2017 11:00:00 16,5 14,7 16,6 17,6 18,6 4 2 10 5 S 1022,3 35 0 0,0
22.09.2017 10:00:00 15,9 14,4 15,3 17,6 18,6 5 3 9 5 SE 1021,9 24 0 0,0
22.09.2017 09:00:00 15,4 14,1 14,5 17,7 18,6 2 1 9 5 SSW 1022,1 22 0 0,0
22.09.2017 08:00:00 15,5 14,0 14,6 17,7 18,6 3 1 11 6 S 1021,4 16 0 0,0
22.09.2017 07:00:00 15,6 14,0 15,0 17,8 18,6 3 2 8 4 SSE 1020,8 42 0 0,0
22.09.2017 06:00:00 15,2 14,2 14,2 17,9 18,6 5 3 6 3 SSE 1020,8 33 0 0,0
22.09.2017 05:00:00 15,2 13,9 14,5 17,9 18,6 3 1 7 4 E 1020,9 20 0 0,0
22.09.2017 04:00:00 15,3 13,8 14,8 18,1 18,6 5 3 8 4 S 1021,4 34 0 0,0
22.09.2017 03:00:00 15,8 14,3 15,2 18,1 18,6 5 3 8 5 S 1021,8 40 0 0,0
22.09.2017 02:00:00 15,8 14,3 15,3 18,2 18,6 6 4 11 6 SW 1021,7 43 0 0,0
22.09.2017 01:00:00 16,1 14,6 15,2 18,3 18,6 5 3 8 5 SSW 1021,3 37 0 0,0
22.09.2017 00:00:00 16,3 14,7 15,2 18,4 18,6 6 3 9 5 SSW 1021,0 38 0 0,0
21.09.2017 23:00:00 17,9 15,0 17,2 18,5 18,6 8 4 14 8 W 1020,9 58 0 0,0
21.09.2017 22:00:00 18,3 15,5 17,5 18,6 18,6 10 5 15 8 W 1020,8 57 0 0,0
21.09.2017 21:00:00 18,2 15,4 17,4 18,7 18,6 8 5 19 10 W 1020,5 58 0 0,0
21.09.2017 20:00:00 18,8 15,8 18,6 18,6 18,6 13 7 24 13 W 1020,0 59 0 0,0
21.09.2017 19:00:00 19,2 15,9 19,5 18,6 18,6 16 8 24 13 W 1019,4 54 6 0,0
21.09.2017 18:00:00 19,8 16,2 20,9 18,4 18,6 16 8 27 15 W 1018,6 48 3 0,0
21.09.2017 17:00:00 20,1 16,5 21,9 18,1 18,6 16 9 28 15 W 1018,2 28 19 0,0
21.09.2017 16:00:00 20,8 16,8 23,1 17,7 18,6 16 9 27 14 W 1017,9 40 53 0,0
21.09.2017 15:00:00 20,4 16,0 24,3 17,2 18,6 18 10 26 14 W 1017,8 40 60 0,0
21.09.2017 14:00:00 20,5 16,3 23,4 16,9 18,7 16 9 28 15 W 1018,0 43 56 0,0
21.09.2017 13:00:00 19,8 15,2 23,4 16,5 18,6 15 8 23 13 W 1018,0 49 60 0,0
21.09.2017 12:00:00 20,0 14,4 23,5 16,2 18,7 12 6 20 11 W 1017,8 19 60 0,0
21.09.2017 11:00:00 19,3 14,3 21,6 16,1 18,7 12 6 19 11 W 1017,6 13 60 0,0
21.09.2017 10:00:00 16,1 12,6 15,6 16,1 18,6 4 2 10 5 SSW 1017,3 29 60 0,0
21.09.2017 09:00:00 13,2 10,9 7,5 16,2 18,7 7 4 10 5 S 1017,1 50 47 0,0
21.09.2017 08:00:00 10,7 9,0 7,7 16,3 18,7 6 4 10 5 S 1016,8 30 0 0,0
21.09.2017 07:00:00 12,1 9,8 6,8 16,5 18,7 5 3 8 4 S 1016,4 37 0 0,0
21.09.2017 06:00:00 10,3 9,4 6,5 16,7 18,7 5 3 10 5 S 1016,6 40 0 0,2
21.09.2017 05:00:00 10,2 9,3 6,5 16,8 18,7 6 4 9 5 SSE 1016,6 50 0 0,0
21.09.2017 04:00:00 11,0 9,7 6,8 17,0 18,7 5 3 10 6 SSE 1016,7 60 0 0,0
21.09.2017 03:00:00 11,3 9,6 7,2 17,2 18,7 6 3 10 5 SE 1017,1 51 0 0,0
21.09.2017 02:00:00 12,3 10,0 7,5 17,4 18,7 4 2 9 5 SE 1017,1 56 0 0,0
21.09.2017 01:00:00 12,0 9,7 9,8 17,6 18,7 7 4 13 7 ESE 1017,1 39 0 0,0
21.09.2017 00:00:00 13,3 10,1 12,3 17,8 18,7 11 6 18 10 E 1017,2 60 0 0,0
20.09.2017 23:00:00 13,7 10,1 12,8 18,0 18,7 11 6 16 9 E 1017,3 60 0 0,0
20.09.2017 22:00:00 14,7 10,3 13,6 18,2 18,7 10 5 15 8 E 1017,6 60 0 0,0
20.09.2017 21:00:00 15,6 10,6 14,5 18,2 18,7 11 6 16 9 E 1017,7 60 0 0,0
20.09.2017 20:00:00 18,5 10,6 17,5 18,3 18,7 12 6 22 12 E 1017,9 60 42 0,0
20.09.2017 19:00:00 21,0 10,2 22,4 18,3 18,7 15 8 24 13 E 1018,1 46 60 0,0
20.09.2017 18:00:00 21,9 11,3 24,6 18,1 18,7 15 8 26 14 E 1018,6 33 60 0,0
20.09.2017 17:00:00 21,9 9,4 25,1 17,8 18,7 16 9 27 14 E 1019,2 54 60 0,0
20.09.2017 16:00:00 21,6 9,8 25,0 17,4 18,7 14 8 26 14 E 1019,8 41 60 0,0
20.09.2017 15:00:00 20,7 10,8 24,1 17,0 18,7 18 10 29 16 ENE 1020,2 20 60 0,0
20.09.2017 14:00:00 19,8 11,3 23,0 16,5 18,7 18 10 27 15 E 1020,9 31 60 0,0
20.09.2017 13:00:00 18,9 11,7 21,5 16,2 18,8 14 7 26 14 E 1021,4 30 60 0,0
20.09.2017 12:00:00 17,7 11,9 19,8 16,0 18,8 15 8 24 13 E 1022,1 29 60 0,0
20.09.2017 11:00:00 15,1 11,5 16,6 15,9 18,7 9 5 16 8 E 1022,6 26 60 0,0
20.09.2017 10:00:00 12,2 10,6 11,9 15,9 18,7 5 3 9 5 ESE 1022,8 34 60 0,0
20.09.2017 09:00:00 9,6 9,1 6,8 16,1 18,8 6 4 12 6 SE 1023,1 20 48 0,0
20.09.2017 08:00:00 7,6 7,2 6,6 16,3 18,8 8 4 14 8 SE 1023,7 28 0 0,0
20.09.2017 07:00:00 8,3 7,9 7,0 16,5 18,8 7 4 10 5 SE 1023,6 20 0 0,0
20.09.2017 06:00:00 8,1 7,5 7,2 16,6 18,7 7 4 11 6 ESE 1023,8 15 0 0,0
20.09.2017 05:00:00 9,4 8,8 7,3 16,9 18,8 6 3 9 5 SE 1024,1 41 0 0,0
20.09.2017 04:00:00 8,9 8,1 7,6 17,0 18,7 5 3 10 5 SE 1024,6 31 0 0,0
20.09.2017 03:00:00 9,6 8,7 8,5 17,3 18,8 8 5 11 6 SE 1025,0 38 0 0,0
20.09.2017 02:00:00 10,4 9,3 8,6 17,5 18,8 9 5 12 7 SSE 1025,2 49 0 0,0
20.09.2017 01:00:00 10,7 9,6 9,2 17,7 18,8 9 5 13 7 SSE 1025,3 48 0 0,0
20.09.2017 00:00:00 10,8 9,4 9,9 17,9 18,8 10 5 12 7 SSE 1025,7 48 0 0,0
19.09.2017 23:00:00 12,0 10,4 10,6 18,1 18,8 8 5 11 6 SSE 1025,8 48 0 0,0
19.09.2017 22:00:00 14,1 10,5 10,6 18,2 18,8 5 3 6 4 SE 1025,8 58 0 0,0
19.09.2017 21:00:00 15,9 10,2 12,4 18,3 18,8 3 2 7 4 N 1025,5 60 0 0,0
19.09.2017 20:00:00 16,6 9,5 15,9 18,4 18,8 6 4 12 7 NW 1025,3 60 38 0,0
19.09.2017 19:00:00 17,5 10,1 18,0 18,4 18,8 8 5 19 10 NW 1025,1 19 42 0,0
19.09.2017 18:00:00 18,6 9,4 21,8 18,3 18,8 11 6 24 13 NNW 1024,9 54 60 0,0
19.09.2017 17:00:00 18,7 10,3 22,2 18,0 18,8 13 7 23 12 NW 1025,1 38 60 0,0
19.09.2017 16:00:00 18,8 9,0 23,4 17,6 18,8 13 7 25 14 NW 1025,5 48 60 0,0
19.09.2017 15:00:00 18,5 9,6 22,5 17,2 18,8 14 8 29 16 NW 1025,9 59 58 0,0
19.09.2017 14:00:00 18,5 9,6 20,1 16,8 18,8 16 9 30 16 NW 1026,1 60 54 0,0
19.09.2017 13:00:00 18,6 10,2 21,8 16,4 18,8 17 9 24 13 NW 1025,9 60 57 0,0
19.09.2017 12:00:00 17,7 11,0 19,1 16,2 18,9 11 6 18 10 N 1026,0 52 30 0,0
19.09.2017 11:00:00 16,6 11,7 15,4 16,1 18,9 3 2 8 4 SW 1025,7 56 21 0,0
19.09.2017 10:00:00 14,0 12,0 13,6 16,1 18,9 4 2 7 4 S 1025,3 58 4 0,2
19.09.2017 09:00:00 12,8 11,9 9,9 16,3 18,9 4 2 10 5 SSE 1024,8 59 33 0,0
19.09.2017 08:00:00 10,9 10,1 8,6 16,4 18,9 6 4 9 5 S 1024,8 52 0 0,0
19.09.2017 07:00:00 11,3 10,7 9,1 16,5 18,9 6 3 9 5 S 1024,5 57 0 0,0
19.09.2017 06:00:00 11,5 10,9 10,2 16,6 18,9 6 3 8 4 S 1024,3 44 0 0,0
19.09.2017 05:00:00 12,5 12,0 11,2 16,7 18,9 6 3 8 4 S 1024,2 51 0 0,0
19.09.2017 04:00:00 12,4 11,8 10,6 16,9 18,9 4 2 8 4 S 1024,3 36 0 0,0
19.09.2017 03:00:00 12,7 12,2 8,9 17,0 18,9 5 3 7 4 S 1024,4 56 0 0,0
19.09.2017 02:00:00 12,9 12,3 9,2 17,1 18,9 7 4 10 5 SSE 1024,2 15 0 0,0
19.09.2017 01:00:00 13,4 12,8 9,6 17,3 18,9 4 2 6 3 SE 1024,3 20 0 0,0
19.09.2017 00:00:00 13,7 12,9 12,4 17,3 18,9 5 3 9 5 SE 1024,2 17 0 0,0
18.09.2017 23:00:00 14,5 13,4 13,6 17,4 18,9 3 2 7 4 SW 1023,8 41 0 0,0
18.09.2017 22:00:00 15,3 12,4 12,8 17,5 19,0 3 1 5 3 SSE 1023,4 60 0 0,0
18.09.2017 21:00:00 15,8 12,5 14,8 17,5 19,0 2 1 10 6 W 1022,6 60 0 0,0
18.09.2017 20:00:00 16,4 12,7 16,3 17,4 19,0 6 3 10 5 NW 1021,9 60 0 0,0
18.09.2017 19:00:00 16,7 13,2 17,1 17,3 19,0 9 5 17 9 WNW 1021,4 60 0 0,0
18.09.2017 18:00:00 16,7 14,0 16,3 17,2 19,0 11 6 21 11 W 1020,9 59 7 0,0
18.09.2017 17:00:00 16,2 13,7 16,7 17,0 19,0 11 6 18 10 WNW 1020,7 60 0 0,0
18.09.2017 16:00:00 16,3 14,0 16,6 16,9 19,0 10 6 17 9 NW 1020,4 51 3 0,0
18.09.2017 15:00:00 16,0 14,5 16,0 16,7 19,0 14 7 20 11 WNW 1020,2 30 0 0,4
18.09.2017 14:00:00 16,2 14,2 16,1 16,5 19,0 9 5 16 9 WNW 1020,2 41 0 0,0
18.09.2017 13:00:00 15,4 14,6 15,1 16,4 19,0 6 3 14 7 WNW 1019,8 20 0 0,8
18.09.2017 12:00:00 14,9 13,9 14,8 16,3 19,1 6 3 14 8 WNW 1019,5 2,9 0 1,2
18.09.2017 11:00:00 14,8 13,3 14,8 16,3 19,1 4 2 13 7 SW 1019,0 18 0 0,0
18.09.2017 10:00:00 13,9 13,3 13,4 16,3 19,1 6 3 13 7 WSW 1018,7 42 0 0,0
18.09.2017 09:00:00 13,4 12,9 13,2 16,3 19,1 7 4 12 6 SW 1018,2 14 0 0,4
18.09.2017 08:00:00 13,3 12,8 13,2 16,4 19,1 4 2 9 5 SSW 1017,9 17 0 0,6
18.09.2017 07:00:00 13,5 13,0 13,3 16,4 19,1 3 1 6 3 SSW 1017,6 10 0 1,0
18.09.2017 06:00:00 13,6 13,1 13,4 16,4 19,1 3 2 8 5 S 1017,7 11 0 1,4
18.09.2017 05:00:00 13,7 13,1 13,4 16,5 19,1 3 1 5 3 SE 1018,1 7 0 1,8
18.09.2017 04:00:00 14,0 13,2 13,7 16,6 19,2 0 0 17 9 N 1018,2 4,0 0 5,3
18.09.2017 03:00:00 14,2 13,1 13,6 16,6 19,2 10 5 23 12 NW 1018,4 6 0 1,0
18.09.2017 02:00:00 14,3 12,8 13,6 16,7 19,2 5 3 11 6 SW 1018,3 47 0 0,2
18.09.2017 01:00:00 14,3 13,0 13,5 16,7 19,2 4 2 12 7 SSW 1018,8 60 0 0,0
18.09.2017 00:00:00 14,5 12,4 13,3 16,7 19,2 6 3 26 14 SSW 1019,2 58 0 0,2
17.09.2017 23:00:00 14,9 13,1 14,5 16,8 19,2 6 3 12 6 SSW 1019,4 20 0 0,0
17.09.2017 22:00:00 15,7 12,6 15,4 16,8 19,2 6 4 20 11 SSW 1019,5 60 0 0,0

tt = Température de l'air
td = dewpoint
tt 5cm = Température de l'air 5cm
tt -20cm = Température de l'air -20cm
tt -100cm = Température de l'air -100cm
ff = Vitesse du vent
fx = gusts
dd = Direction du vent
ppp = reduced air pressure
vv = visibility
sd = Ensoleillement
rr = Quantités de précipitations

stations d'obs. à proximité